FW6956 Weather Reports


Display with metric or nautical units.
time (UTC)temp
F
wind
direction
speed
MPH
gust
MPH
rain 1hr
in
rain 24hr
in
rain mn
in
humidity
%
barometer
mb
20260504201558 80 235 2.0 9.0 0.00 0.00 0.00 30 1013.7
20260504200055 80 247 1.0 11.0 0.00 0.00 0.00 31 1013.9
20260504194559 80 210 3.0 12.0 0.00 0.00 0.00 31 1013.9
20260504193102 79 275 3.0 11.0 0.00 0.00 0.00 31 1014.0
20260504191604 79 211 1.0 9.0 0.00 0.00 0.00 34 1014.2
20260504190056 79 223 3.0 10.0 0.00 0.00 0.00 32 1014.5
20260504184556 78 202 3.0 9.0 0.00 0.00 0.00 32 1014.7
20260504183057 78 174 3.0 8.0 0.00 0.00 0.00 35 1014.9
20260504181559 77 173 0.0 8.0 0.00 0.00 0.00 35 1015.1
20260504174558 75 60 1.0 8.0 0.00 0.00 0.00 35 1015.4
20260504173057 76 240 1.0 8.0 0.00 0.00 0.00 36 1015.4
20260504171600 75 211 0.0 6.0 0.00 0.00 0.00 38 1015.5
20260504150109 67 0 2.0 5.0 0.00 0.00 0.00 46 1017.8
20260504130109 51 218 0.0 2.0 0.00 0.00 0.00 73 1017.9
20260504110105 35 0 0.0 0.0 0.00 0.00 0.00 95 1017.5
20260504100108 35 0 0.0 0.0 0.00 0.00 0.00 94 1017.5
20260504081558 37 0 0.0 0.0 0.00 0.00 0.00 94 1017.3
20260504080115 37 0 0.0 0.0 0.00 0.00 0.00 93 1017.1
20260504044559 42 0 0.0 0.0 0.00 0.00 0.00 90 1017.4
20260504043111 42 0 0.0 0.0 0.00 0.00 0.00 90 1017.2
20260504041558 43 0 0.0 0.0 0.00 0.00 0.00 89 1017.2
20260504040123 43 0 0.0 0.0 0.00 0.00 0.00 88 1016.9
20260504034557 44 0 0.0 0.0 0.00 0.00 0.00 87 1016.8
20260504033059 44 0 0.0 0.0 0.00 0.00 0.00 87 1017.0
20260504031559 45 0 0.0 0.0 0.00 0.00 0.00 86 1017.2
20260504030058 45 0 0.0 0.0 0.00 0.00 0.00 85 1017.2
20260504024556 46 0 0.0 0.0 0.00 0.00 0.00 84 1017.1
20260504023102 47 0 0.0 0.0 0.00 0.00 0.00 82 1017.1
20260504021559 48 0 0.0 0.0 0.00 0.00 0.00 80 1017.0
20260504014606 50 0 0.0 0.0 0.00 0.00 0.00 76 1016.5
20260504013108 51 0 0.0 1.0 0.00 0.00 0.00 72 1016.1
20260504011600 52 0 0.0 0.0 0.00 0.00 0.00 70 1016.0
20260504010058 53 0 0.0 0.0 0.00 0.00 0.00 69 1015.8
20260504004557 54 0 0.0 0.0 0.00 0.00 0.00 64 1015.7
20260504003103 57 0 0.0 0.0 0.00 0.00 0.00 59 1015.5
20260504001607 60 0 0.0 0.0 0.00 0.00 0.00 53 1015.5
20260504000130 62 0 0.0 1.0 0.00 0.00 0.00 46 1015.2
20260503234559 64 0 0.0 2.0 0.00 0.00 0.00 41 1015.3
20260503233059 66 217 0.0 3.0 0.00 0.00 0.00 38 1015.1
20260503231555 67 223 1.0 3.0 0.00 0.00 0.00 34 1015.1
20260503230103 68 223 0.0 4.0 0.00 0.00 0.00 34 1015.1
20260503224555 68 0 1.0 3.0 0.00 0.00 0.00 33 1015.1
20260503223057 69 229 1.0 6.0 0.00 0.00 0.00 31 1015.1
20260503221559 69 212 2.0 8.0 0.00 0.00 0.00 29 1015.1
20260503214556 70 269 3.0 9.0 0.00 0.00 0.00 32 1015.3
20260503213059 70 181 1.0 10.0 0.00 0.00 0.00 33 1015.5
20260503211558 69 270 2.0 9.0 0.00 0.00 0.00 35 1015.6
20260503210059 69 303 5.0 9.0 0.00 0.00 0.00 34 1015.9
20260503204558 69 256 4.0 11.0 0.00 0.00 0.00 34 1016.0
20260503203056 70 175 1.0 6.0 0.00 0.00 0.00 32 1016.2